Weather History for KORF - September, 2013

Change the Weather History Date:

Sunday, September 22, 2013

  Actual Average Record
Temperature  
Mean Temperature 70 °F 70 °F  
Max Temperature 74 °F 78 °F 97 °F (1980)
Min Temperature 65 °F 63 °F 46 °F (1889)
Degree Days  
Heating Degree Days 0 0  
Month to date heating degree days 0 0  
Since 1 July heating degree days 0 0  
Cooling Degree Days 5 6  
Month to date cooling degree days 197 191  
Year to date cooling degree days 1646 1526  
Growing Degree Days 18 (Base 50)    
Moisture  
Dew Point 63 °F    
Average Humidity 77    
Maximum Humidity 100    
Minimum Humidity 53    
Precipitation  
Precipitation 0.49 in 0.15 in 2.11 in (1885)
Month to date precipitation 0.93 3.63  
Year to date precipitation 34.20 35.57  
Snow  
Snow 0.00 in 0.00 in 0.00 in (2002)
Month to date snowfall 0.0 0.0  
Since 1 July snowfall 0.0 0.0  
Snow Depth 0.00 in    
Sea Level Pressure  
Sea Level Pressure 29.78 in    
Wind  
Wind Speed 12 mph (North)    
Max Wind Speed 21 mph    
Max Gust Speed 25 mph    
Visibility 8 miles    
Events Rain    
T = Trace of Precipitation, MM = Missing Value Source: NWS Daily Summary

Daily Weather History Graph

Daily Weather History Graph

Search for Another Location

Airport or City:

Trip Planner

Search our weather history database for the weather conditions in past years. The results will help you decide how hot, cold, wet, or windy it might be!

Date:

Astronomy

Sep. 22, 2013 Rise Set
Actual Time 6:52 AM EDT 7:01 PM EDT
Civil Twilight 6:26 AM EDT 7:27 PM EDT
Nautical Twilight 5:56 AM EDT 7:57 PM EDT
Astronomical Twilight 5:25 AM EDT 8:27 PM EDT
Moon 8:55 PM EDT (9/22) 10:05 AM EDT (9/22)
Length of Visible Light 13h 00m
Length of Day
12h 08m
Waning Gibbous, 89% of the Moon is Illuminated
Sep 22
Waning Gibbous
Sep 26
Last Quarter
Oct 4
New
Oct 11
First Quarter
Oct 18
Full

Hourly Weather History & Observations

Time (EDT) Temp. Dew Point Humidity Pressure Visibility Wind Dir Wind Speed Gust Speed Precip Events Conditions
12:11 AM 69.8 °F 68.0 °F 94% 29.76 in 6.0 mi West 9.2 mph - 0.02 in Rain Rain
12:33 AM 69.8 °F 66.2 °F 88% 29.75 in 9.0 mi West 4.6 mph - 0.04 in Rain Light Rain
12:51 AM 69.1 °F 66.9 °F 93% 29.75 in 10.0 mi Calm Calm - 0.04 in Rain Light Rain
1:51 AM 69.1 °F 68.0 °F 96% 29.74 in 10.0 mi Calm Calm - 0.02 in Rain Light Rain
1:59 AM 69.8 °F 66.2 °F 88% 29.75 in 9.0 mi WNW 4.6 mph - 0.00 in Rain Light Rain
2:26 AM 69.8 °F 66.2 °F 88% 29.75 in 1.8 mi West 11.5 mph 16.1 mph 0.06 in Rain Heavy Rain
2:34 AM 68.0 °F 66.2 °F 94% 29.74 in 1.2 mi WSW 5.8 mph 16.1 mph 0.28 in Rain Heavy Rain
2:40 AM 68.0 °F 66.2 °F 94% 29.74 in 4.0 mi WSW 8.1 mph - 0.29 in Rain Light Rain
2:48 AM 68.0 °F 66.2 °F 94% 29.74 in 10.0 mi WSW 4.6 mph - 0.29 in Rain Light Rain
2:51 AM 68.0 °F 66.9 °F 96% 29.74 in 9.0 mi WSW 3.5 mph - 0.30 in Rain Light Rain
3:51 AM 68.0 °F 66.0 °F 93% 29.73 in 4.0 mi WSW 3.5 mph - 0.04 in Rain Rain
4:15 AM 68.0 °F 66.2 °F 94% 29.73 in 5.0 mi WSW 3.5 mph - 0.02 in Rain Rain
4:26 AM 66.2 °F 66.2 °F 100% 29.73 in 2.5 mi WSW 3.5 mph - 0.06 in Rain Rain
4:29 AM 68.0 °F 66.2 °F 94% 29.73 in 3.0 mi Calm Calm - 0.07 in Rain Rain
4:35 AM 68.0 °F 66.2 °F 94% 29.73 in 5.0 mi Calm Calm - 0.07 in Rain Light Rain
4:51 AM 66.9 °F 66.0 °F 97% 29.73 in 8.0 mi WSW 3.5 mph - 0.09 in Rain Light Rain
5:51 AM 66.9 °F 66.9 °F 100% 29.74 in 8.0 mi Calm Calm - 0.00 in Rain Light Rain
6:21 AM 66.2 °F 66.2 °F 100% 29.74 in 9.0 mi NNW 9.2 mph - 0.02 in Rain Light Rain
6:29 AM 64.4 °F 64.4 °F 100% 29.74 in 6.0 mi North 10.4 mph - 0.03 in Rain Light Rain
6:36 AM 64.4 °F 64.4 °F 100% 29.75 in 5.0 mi North 6.9 mph - 0.03 in Rain Light Rain
6:43 AM 64.4 °F 64.4 °F 100% 29.75 in 6.0 mi North 6.9 mph - 0.03 in Rain Light Rain
6:51 AM 66.0 °F 64.9 °F 96% 29.75 in 10.0 mi North 10.4 mph - 0.04 in Rain Light Rain
7:08 AM 66.2 °F 64.4 °F 94% 29.76 in 10.0 mi North 9.2 mph - 0.00 in   Overcast
7:51 AM 66.0 °F 63.0 °F 90% 29.77 in 10.0 mi North 11.5 mph 19.6 mph 0.00 in   Overcast
8:08 AM 66.2 °F 62.6 °F 88% 29.78 in 10.0 mi North 12.7 mph 18.4 mph N/A   Overcast
8:20 AM 66.2 °F 64.4 °F 94% 29.78 in 10.0 mi North 12.7 mph 18.4 mph N/A   Overcast
8:51 AM 66.0 °F 63.0 °F 90% 29.79 in 10.0 mi NNE 12.7 mph 19.6 mph N/A   Overcast
9:51 AM 66.0 °F 64.0 °F 93% 29.81 in 10.0 mi NNE 13.8 mph - N/A   Overcast
10:36 AM 66.2 °F 62.6 °F 88% 29.80 in 10.0 mi NE 15.0 mph - N/A   Overcast
10:51 AM 66.9 °F 63.0 °F 87% 29.81 in 10.0 mi NE 9.2 mph 18.4 mph N/A   Overcast
11:20 AM 68.0 °F 62.6 °F 83% 29.80 in 10.0 mi NNE 13.8 mph - N/A   Overcast
11:51 AM 68.0 °F 61.0 °F 78% 29.81 in 10.0 mi NNE 13.8 mph - N/A   Overcast
12:19 PM 71.6 °F 64.4 °F 78% 29.80 in 10.0 mi NNE 13.8 mph - N/A   Overcast
12:36 PM 71.6 °F 62.6 °F 73% 29.81 in 10.0 mi NNE 13.8 mph - N/A   Overcast
12:51 PM 72.0 °F 62.1 °F 71% 29.81 in 10.0 mi NNE 12.7 mph - N/A   Overcast
1:51 PM 73.0 °F 62.1 °F 68% 29.80 in 10.0 mi North 13.8 mph - N/A   Scattered Clouds
2:00 PM 71.6 °F 60.8 °F 69% 29.80 in 10.0 mi NNE 13.8 mph - N/A   Mostly Cloudy
2:12 PM 73.4 °F 62.6 °F 69% 29.80 in 10.0 mi North 13.8 mph 19.6 mph N/A   Scattered Clouds
2:51 PM 72.0 °F 60.1 °F 66% 29.79 in 10.0 mi NNE 13.8 mph - N/A   Mostly Cloudy
3:51 PM 72.0 °F 60.1 °F 66% 29.79 in 10.0 mi North 13.8 mph - N/A   Overcast
4:51 PM 72.0 °F 60.1 °F 66% 29.79 in 10.0 mi NNE 15.0 mph 21.9 mph N/A   Overcast
5:51 PM 71.1 °F 57.0 °F 61% 29.80 in 10.0 mi North 13.8 mph - N/A   Overcast
6:51 PM 71.1 °F 53.1 °F 53% 29.81 in 10.0 mi NNE 12.7 mph 20.7 mph N/A   Mostly Cloudy
7:51 PM 70.0 °F 54.0 °F 57% 29.83 in 10.0 mi NNE 12.7 mph - N/A   Clear
8:51 PM 70.0 °F 55.0 °F 59% 29.85 in 10.0 mi North 16.1 mph 25.3 mph N/A   Mostly Cloudy
9:51 PM 69.1 °F 54.0 °F 58% 29.86 in 10.0 mi NNE 19.6 mph 25.3 mph N/A   Clear
10:51 PM 69.1 °F 53.1 °F 57% 29.87 in 10.0 mi NE 13.8 mph - N/A   Clear
11:51 PM 68.0 °F 52.0 °F 56% 29.88 in 10.0 mi NE 16.1 mph - N/A   Partly Cloudy